Location: 5810 Zion Rd, Cleves, OH 45002, USA
(39.1922°N, 84.7113°W)
Time: 14:42:32
(UTC-05:00)

Courier 1B Rocket - Pass Details

Date: 11 December 2019
Orbit: 920 x 1202 km, 28.2° (Epoch: 26 January)

Event Time Altitude Azimuth Distance (km) Brightness Sun altitude
Rises 09:20:34 0° 256° (WSW) 3,727 7.7 13.4°
Reaches altitude 10° 09:23:39 10° 246° (WSW) 2,732 7.2 13.8°
Maximum altitude 09:29:10 29° 188° (S) 1,664 7.0 14.5°
Drops below altitude 10° 09:34:28 10° 130° (SE) 2,619 9.8 15.2°
Sets 09:37:22 0° 120° (ESE) 3,548 9.4 15.6°
